| time (UTC) | temp F | wind direction | speed MPH | gust MPH | rain 1hr in | rain 24hr in | rain mn in | humidity % | barometer mb |
| 20260506184046 | 51 | 0 | 0.0 | 0.0 | 0.00 | 0.76 | 0.58 | 93 | 1012.6 |
| 20260506183048 | 52 | 0 | 0.0 | 0.0 | 0.00 | 0.76 | 0.58 | 93 | 1012.5 |
| 20260506182048 | 52 | 0 | 0.0 | 0.0 | 0.00 | 0.77 | 0.58 | 91 | 1012.4 |
| 20260506181045 | 52 | 0 | 0.0 | 0.0 | 0.00 | 0.78 | 0.58 | 89 | 1012.2 |
| 20260506180048 | 53 | 0 | 0.0 | 0.0 | 0.00 | 0.79 | 0.58 | 86 | 1012.1 |
| 20260506175049 | 53 | 0 | 0.0 | 0.0 | 0.00 | 0.80 | 0.58 | 86 | 1012.0 |
| 20260506174046 | 53 | 0 | 0.0 | 0.0 | 0.00 | 0.80 | 0.58 | 84 | 1011.9 |
| 20260506173045 | 53 | 0 | 0.0 | 0.0 | 0.00 | 0.81 | 0.58 | 83 | 1011.7 |
| 20260506172047 | 53 | 0 | 0.0 | 0.0 | 0.00 | 0.82 | 0.58 | 87 | 1011.6 |
| 20260506171047 | 53 | 0 | 0.0 | 0.0 | 0.00 | 0.83 | 0.58 | 90 | 1011.6 |
| 20260506170044 | 53 | 0 | 0.0 | 0.0 | 0.00 | 0.83 | 0.58 | 92 | 1011.6 |
| 20260506165044 | 53 | 0 | 0.0 | 0.0 | 0.00 | 0.84 | 0.58 | 92 | 1011.6 |
| 20260506163047 | 53 | 0 | 0.0 | 0.0 | 0.00 | 0.86 | 0.58 | 90 | 1011.5 |
| 20260506162047 | 53 | 0 | 0.0 | 0.0 | 0.00 | 0.86 | 0.58 | 90 | 1011.5 |
| 20260506161045 | 53 | 0 | 0.0 | 0.0 | 0.00 | 0.87 | 0.58 | 89 | 1011.6 |
| 20260506160047 | 53 | 0 | 0.0 | 0.0 | 0.00 | 0.87 | 0.58 | 90 | 1011.7 |
| 20260506155044 | 52 | 0 | 0.0 | 0.0 | 0.00 | 0.87 | 0.58 | 90 | 1011.7 |
| 20260506154050 | 52 | 0 | 0.0 | 0.0 | 0.00 | 0.87 | 0.58 | 91 | 1011.7 |
| 20260506153055 | 52 | 0 | 0.0 | 0.0 | 0.00 | 0.88 | 0.58 | 90 | 1011.6 |
| 20260506152046 | 52 | 0 | 0.0 | 0.0 | 0.00 | 0.88 | 0.58 | 89 | 1011.6 |
| 20260506150044 | 52 | 0 | 0.0 | 0.0 | 0.00 | 0.89 | 0.58 | 87 | 1011.6 |
| 20260506145046 | 52 | 0 | 0.0 | 0.0 | 0.00 | 0.89 | 0.58 | 87 | 1011.6 |
| 20260506144046 | 52 | 0 | 0.0 | 0.0 | 0.00 | 0.89 | 0.58 | 88 | 1011.7 |
| 20260506143044 | 52 | 0 | 0.0 | 0.0 | 0.00 | 0.89 | 0.58 | 88 | 1011.7 |
| 20260506142044 | 52 | 0 | 0.0 | 0.0 | 0.00 | 0.89 | 0.58 | 88 | 1011.7 |
| 20260506140050 | 52 | 0 | 0.0 | 0.0 | 0.00 | 0.89 | 0.58 | 86 | 1011.6 |
| 20260506135046 | 52 | 0 | 0.0 | 0.0 | 0.00 | 0.89 | 0.58 | 87 | 1011.6 |
| 20260506134046 | 52 | 0 | 0.0 | 0.0 | 0.00 | 0.89 | 0.58 | 87 | 1011.6 |
| 20260506132046 | 53 | 0 | 0.0 | 0.0 | 0.00 | 0.89 | 0.58 | 85 | 1011.6 |
| 20260506131042 | 53 | 0 | 0.0 | 0.0 | 0.00 | 0.89 | 0.58 | 87 | 1011.4 |
| 20260506130046 | 53 | 0 | 0.0 | 0.0 | 0.00 | 0.89 | 0.58 | 87 | 1011.5 |
| 20260506125051 | 53 | 0 | 0.0 | 0.0 | 0.00 | 0.89 | 0.58 | 86 | 1011.4 |
| 20260506124045 | 53 | 0 | 0.0 | 0.0 | 0.00 | 0.89 | 0.58 | 88 | 1011.2 |
| 20260506122044 | 52 | 0 | 0.0 | 0.0 | 0.00 | 0.89 | 0.58 | 90 | 1011.1 |
| 20260506121043 | 51 | 0 | 0.0 | 0.0 | 0.00 | 0.89 | 0.58 | 90 | 1011.1 |
| 20260506120043 | 51 | 0 | 0.0 | 0.0 | 0.00 | 0.89 | 0.58 | 91 | 1011.0 |
| 20260506114044 | 51 | 0 | 0.0 | 0.0 | 0.00 | 0.89 | 0.58 | 94 | 1010.9 |
| 20260506113046 | 50 | 0 | 0.0 | 0.0 | 0.00 | 0.89 | 0.58 | 95 | 1010.8 |
| 20260506112044 | 50 | 0 | 0.0 | 0.0 | 0.01 | 0.89 | 0.58 | 95 | 1010.8 |
| 20260506111044 | 50 | 0 | 0.0 | 0.0 | 0.01 | 0.89 | 0.58 | 97 | 1010.8 |
| 20260506105043 | 50 | 0 | 0.0 | 0.0 | 0.01 | 0.89 | 0.58 | 96 | 1010.9 |
| 20260506104045 | 50 | 0 | 0.0 | 0.0 | 0.02 | 0.89 | 0.58 | 96 | 1010.9 |
| 20260506103044 | 50 | 0 | 0.0 | 0.0 | 0.02 | 0.89 | 0.58 | 97 | 1010.8 |
| 20260506102044 | 50 | 0 | 0.0 | 0.0 | 0.02 | 0.89 | 0.58 | 97 | 1010.8 |
| 20260506101044 | 49 | 0 | 0.0 | 0.0 | 0.02 | 0.88 | 0.57 | 97 | 1010.8 |
| 20260506100044 | 49 | 0 | 0.0 | 0.0 | 0.02 | 0.88 | 0.57 | 98 | 1010.8 |
| 20260506095045 | 49 | 0 | 0.0 | 0.0 | 0.03 | 0.88 | 0.57 | 98 | 1010.8 |
| 20260506094040 | 49 | 0 | 0.0 | 0.0 | 0.04 | 0.88 | 0.57 | 98 | 1010.7 |
| 20260506093045 | 49 | 0 | 0.0 | 0.0 | 0.04 | 0.87 | 0.57 | 98 | 1010.6 |
| 20260506092044 | 49 | 0 | 0.0 | 0.0 | 0.04 | 0.87 | 0.57 | 98 | 1010.6 |
| 20260506090045 | 48 | 0 | 0.0 | 0.0 | 0.04 | 0.87 | 0.56 | 98 | 1010.4 |
| 20260506083039 | 48 | 0 | 0.0 | 0.0 | 0.02 | 0.84 | 0.54 | 99 | 1010.2 |
| 20260506082044 | 48 | 0 | 0.0 | 0.0 | 0.02 | 0.83 | 0.53 | 98 | 1010.2 |
| 20260506081044 | 48 | 0 | 0.0 | 0.0 | 0.03 | 0.83 | 0.53 | 98 | 1010.1 |
| 20260506073041 | 47 | 0 | 0.0 | 0.0 | 0.03 | 0.83 | 0.52 | 99 | 1009.9 |
| 20260506072044 | 47 | 0 | 0.0 | 0.0 | 0.04 | 0.82 | 0.51 | 99 | 1009.8 |
| 20260506071044 | 47 | 0 | 0.0 | 0.0 | 0.04 | 0.81 | 0.50 | 99 | 1009.8 |
| 20260506062045 | 47 | 0 | 0.0 | 0.0 | 0.06 | 0.80 | 0.49 | 99 | 1009.3 |
| 20260506051044 | 47 | 0 | 0.0 | 0.0 | 0.06 | 0.73 | 0.43 | 10 | 1009.2 |
| 20260506045041 | 47 | 0 | 0.0 | 0.0 | 0.05 | 0.71 | 0.40 | 99 | 1009.2 |
| 20260506044043 | 47 | 0 | 0.0 | 0.0 | 0.05 | 0.70 | 0.39 | 99 | 1009.2 |
| 20260506043045 | 47 | 0 | 0.0 | 0.0 | 0.04 | 0.69 | 0.38 | 99 | 1009.2 |
| 20260506041042 | 48 | 0 | 0.0 | 0.0 | 0.05 | 0.68 | 0.37 | 99 | 1009.1 |
| 20260506040044 | 48 | 0 | 0.0 | 0.0 | 0.06 | 0.67 | 0.36 | 99 | 1009.1 |
| 20260506035046 | 48 | 0 | 0.0 | 0.0 | 0.06 | 0.66 | 0.35 | 99 | 1009.2 |
| 20260506034043 | 48 | 0 | 0.0 | 0.0 | 0.07 | 0.66 | 0.35 | 10 | 1009.2 |
| 20260506033044 | 48 | 0 | 0.0 | 0.0 | 0.08 | 0.65 | 0.35 | 10 | 1009.2 |
| 20260506032043 | 48 | 0 | 0.0 | 0.0 | 0.08 | 0.65 | 0.34 | 99 | 1009.2 |
| 20260506031042 | 48 | 0 | 0.0 | 0.0 | 0.08 | 0.64 | 0.33 | 99 | 1009.2 |
| 20260506030043 | 48 | 0 | 0.0 | 0.0 | 0.08 | 0.63 | 0.32 | 10 | 1009.2 |
| 20260506025043 | 48 | 0 | 0.0 | 0.0 | 0.07 | 0.61 | 0.31 | 99 | 1009.2 |
| 20260506024044 | 48 | 0 | 0.0 | 0.0 | 0.07 | 0.61 | 0.30 | 10 | 1009.3 |
| 20260506023045 | 48 | 0 | 0.0 | 0.0 | 0.07 | 0.59 | 0.28 | 10 | 1009.3 |
| 20260506022042 | 48 | 0 | 0.0 | 0.0 | 0.06 | 0.57 | 0.27 | 10 | 1009.3 |
| 20260506021044 | 49 | 0 | 0.0 | 0.0 | 0.07 | 0.57 | 0.26 | 10 | 1009.3 |
| 20260506020044 | 49 | 0 | 0.0 | 0.0 | 0.08 | 0.56 | 0.25 | 10 | 1009.3 |
| 20260506015043 | 49 | 0 | 0.0 | 0.0 | 0.09 | 0.55 | 0.24 | 10 | 1009.4 |
| 20260506012043 | 49 | 0 | 0.0 | 0.0 | 0.08 | 0.52 | 0.21 | 10 | 1009.4 |
| 20260506011044 | 49 | 0 | 0.0 | 0.0 | 0.08 | 0.51 | 0.20 | 10 | 1009.4 |
| 20260506010040 | 49 | 0 | 0.0 | 0.0 | 0.07 | 0.50 | 0.19 | 10 | 1009.4 |
| 20260506005043 | 49 | 0 | 0.0 | 0.0 | 0.06 | 0.48 | 0.17 | 10 | 1009.5 |
| 20260506004043 | 49 | 0 | 0.0 | 0.0 | 0.06 | 0.46 | 0.16 | 10 | 1009.5 |
| 20260506003042 | 49 | 0 | 0.0 | 0.0 | 0.06 | 0.46 | 0.15 | 10 | 1009.6 |
| 20260506002044 | 49 | 0 | 0.0 | 0.0 | 0.06 | 0.45 | 0.14 | 10 | 1009.7 |
| 20260506000044 | 49 | 0 | 0.0 | 0.0 | 0.06 | 0.43 | 0.13 | 10 | 1009.9 |
| 20260505235045 | 49 | 0 | 0.0 | 0.0 | 0.06 | 0.43 | 0.12 | 10 | 1010.0 |
| 20260505234044 | 49 | 0 | 0.0 | 0.0 | 0.06 | 0.42 | 0.11 | 10 | 1010.0 |
| 20260505233044 | 50 | 0 | 0.0 | 0.0 | 0.05 | 0.40 | 0.09 | 10 | 1010.0 |
| 20260505231045 | 50 | 0 | 0.0 | 0.0 | 0.07 | 0.39 | 0.09 | 10 | 1010.0 |
| 20260505230043 | 50 | 0 | 0.0 | 0.0 | 0.08 | 0.39 | 0.08 | 10 | 1010.0 |
| 20260505225047 | 50 | 0 | 0.0 | 0.0 | 0.08 | 0.38 | 0.07 | 10 | 1010.1 |
| 20260505224046 | 50 | 0 | 0.0 | 0.0 | 0.08 | 0.37 | 0.06 | 10 | 1010.1 |
| 20260505223045 | 50 | 0 | 0.0 | 0.0 | 0.08 | 0.36 | 0.06 | 10 | 1010.1 |
| 20260505222045 | 50 | 0 | 0.0 | 0.0 | 0.07 | 0.35 | 0.05 | 10 | 1010.2 |
| 20260505221048 | 50 | 0 | 0.0 | 0.0 | 0.06 | 0.34 | 0.03 | 10 | 1010.2 |
| 20260505215048 | 50 | 0 | 0.0 | 0.0 | 0.04 | 0.31 | 0.31 | 10 | 1010.3 |
| 20260505214047 | 50 | 0 | 0.0 | 0.0 | 0.04 | 0.30 | 0.30 | 10 | 1010.3 |
| 20260505213047 | 50 | 0 | 0.0 | 0.0 | 0.04 | 0.29 | 0.29 | 10 | 1010.4 |
| 20260505212048 | 50 | 0 | 0.0 | 0.0 | 0.03 | 0.28 | 0.28 | 10 | 1010.4 |
| 20260505211046 | 50 | 0 | 0.0 | 0.0 | 0.04 | 0.28 | 0.28 | 10 | 1010.5 |
| 20260505210048 | 50 | 0 | 0.0 | 0.0 | 0.04 | 0.28 | 0.28 | 10 | 1010.5 |
| 20260505204046 | 51 | 0 | 0.0 | 0.0 | 0.05 | 0.27 | 0.27 | 10 | 1010.5 |
| 20260505203047 | 51 | 0 | 0.0 | 0.0 | 0.06 | 0.26 | 0.26 | 10 | 1010.5 |
| 20260505202049 | 51 | 0 | 0.0 | 0.0 | 0.06 | 0.25 | 0.25 | 10 | 1010.5 |
| 20260505201052 | 51 | 0 | 0.0 | 0.0 | 0.07 | 0.25 | 0.25 | 10 | 1010.4 |
| 20260505200045 | 51 | 0 | 0.0 | 0.0 | 0.09 | 0.24 | 0.24 | 10 | 1010.4 |
| 20260505195046 | 51 | 0 | 0.0 | 0.0 | 0.09 | 0.24 | 0.24 | 10 | 1010.3 |
| 20260505194044 | 51 | 0 | 0.0 | 0.0 | 0.09 | 0.23 | 0.23 | 10 | 1010.2 |
| 20260505193049 | 51 | 0 | 0.0 | 0.0 | 0.09 | 0.22 | 0.22 | 10 | 1010.1 |
| 20260505192048 | 51 | 0 | 0.0 | 0.0 | 0.09 | 0.20 | 0.20 | 10 | 1010.1 |
| 20260505191048 | 51 | 0 | 0.0 | 0.0 | 0.09 | 0.20 | 0.20 | 10 | 1010.1 |
| 20260505190047 | 51 | 0 | 0.0 | 0.0 | 0.08 | 0.18 | 0.18 | 10 | 1010.0 |
| 20260505185048 | 51 | 0 | 0.0 | 0.0 | 0.06 | 0.16 | 0.16 | 10 | 1010.0 |